Location: Newark
(52.4787°S, 179.0532°W)
Time: 01:19:18
(UTC+00:00)

Transit 2A Rocket - Pass Details

Date: 29 November 2019
Orbit: 594 x 909 km, 66.7° (Epoch: 05 December)

Event Time Altitude Azimuth Distance (km) Brightness Sun altitude
Rises 01:38:56 0° 224° (SW) 3,568 8.5 51.9°
Reaches altitude 10° 01:41:44 10° 215° (SW) 2,629 7.8 51.6°
Maximum altitude 01:47:20 35° 150° (SSE) 1,442 6.5 51.0°
Drops below altitude 10° 01:52:46 10° 85° (E) 2,547 7.5 50.3°
Sets 01:55:26 0° 75° (ENE) 3,444 8.1 50.0°
